Location: Hains Lake
(37.8540°N, 99.8578°W)
Time: 22:44:30
(UTC+00:00)

Explorer 7 - Pass Details

Date: 25 April 2021
Orbit: 484 x 677 km, 50.3° (Epoch: 13 May)

Event Time Altitude Azimuth Distance (km) Brightness Sun altitude
Rises 04:56:52 0° 311° (NW) 2,728 11.3 -33.7°
Reaches altitude 10° 04:59:30 10° 328° (NNW) 1,871 10.3 -34.0°
Enters shadow 05:01:21 18° 351° (N) 1,450 9.5 -34.1°
